Tracking 30995 objects as of 6-Jul-2025
HD Live streaming from Space Station
objects crossing your sky now

OBJECT A

Track OBJECT A now!
10-day predictions


NORAD ID: 52716
Int'l Code: 2022-056A
Perigee: 871.8 km
Apogee: 900.6 km
Inclination: 86.0 °
Period: 102.5 minutes
Semi major axis: 7257 km
RCS: Unknown
Launch date: May 20, 2022
Source: People's Republic of China (PRC)
Launch site: Jiuquan Satellite Launch Center, China (JSC)

Note: This is a ROCKET BODY
Your satellite tracking list
Your tracking list is empty




NASA's NSSDC Master Catalog

Two Line Element Set (TLE):
1 52716U 22056A   25186.86143158  .00000150  00000-0  82784-4 0  9993
2 52716  86.0059 176.5015 0019807  20.9534 339.2451 14.04263170160286
Source of the keplerian elements: AFSPC